Location: Rumah Geringgi
(3.1667°N, 113.1667°E)
Time: 00:59:49
(UTC+00:00)

ARIANE 5 R/B - Pass Details

Date: 03 August 2024
Orbit: 291 x 33317 km, 1.9° (Epoch: 08 July)

Event Time Altitude Azimuth Distance (km) Brightness Sun altitude
Rises 22:28:34 0° 267° (W) 12,735 8.6 -0.2°
Reaches altitude 10° 22:44:26 10° 266° (W) 7,019 7.3 3.5°
Maximum altitude 22:58:37 72° 183° (S) 881 3.4 6.9°
Drops below altitude 10° 23:01:40 10° 97° (E) 1,636 6.2 7.7°
Sets 23:02:54 0° 94° (E) 2,240 6.9 8.0°
